Location: Davidschlag
(48.4333°N, 14.2833°E)
Time: 02:54:18
(UTC+00:00)

STARLINK-1062 - Pass Details

Date: 27 February 2020
Orbit: 549 x 550 km, 53.0° (Epoch: 03 April)

Event Time Altitude Azimuth Distance (km) Brightness Sun altitude
Rises 19:05:30 0° 257° (WSW) 2,716 8.1 -24.3°
Reaches altitude 10° 19:07:45 10° 261° (W) 1,825 7.1 -24.6°
Enters shadow 19:11:33 58° 318° (NW) 645 4.1 -25.2°
